#timestamp,LO_Frequency,Hit,StdDev 
1632967215.4,286046999.2,N
1632967235.3,286046998.1,N
1632967255.1,286046998.6,N
1632967256.0,286046998.6,N
1632967275.8,286047000.6,N
1632967295.7,286046999.3,N
1632967315.5,286047000.9,N
1632967335.3,286046999.1,N
1632967355.2,286046999.4,N
1632967375.0,286047001.0,N
1632967375.9,286047001.0,N
1632967395.8,286046999.4,N
1632967415.6,286046999.6,N
1632967435.5,286046998.6,N
1632967455.3,286047000.7,N
1632967475.1,286047001.9,N
1632967495.9,286047001.4,N
1632967515.7,286047004.1,Y
1632967535.6,286047001.3,P
1632967555.4,286047001.9,N
1632967575.2,286047000.2,N
1632967595.1,286047000.6,N
1632967596.0,286047000.6,N
1632967615.8,286046998.5,N
1632967635.6,286047000.3,N
1632967655.5,286047000.3,N
1632967675.3,286047000.9,N
1632967695.2,286047000.0,N
1632967715.9,286047002.8,Y
1632967735.7,286047000.3,P
1632967755.6,286047000.6,P
1632967775.4,286047000.4,N
1632967795.3,286047002.6,Y
1632967815.1,286047000.2,P
1632967816.0,286047000.2,N
1632967835.8,286047002.6,P
1632967855.7,286047002.6,N
1632967875.5,286047001.4,N
1632967895.3,286047001.5,N
1632967915.2,286047002.2,N
1632967935.0,286046999.9,N
1632967935.9,286046999.9,N
1632967955.8,286047001.0,N
1632967975.6,286047002.8,N
1632967995.4,286047002.2,N
1632968015.3,286047001.5,N
1632968035.1,286047002.7,N
1632968055.9,286046999.7,N
1632968075.7,286047000.5,N
1632968095.5,286046999.9,N
1632968115.4,286047000.5,N
1632968135.2,286047000.9,N
1632968155.0,286047000.9,N
1632968155.9,286047000.9,N
1632968175.8,286047000.3,N
1632968195.6,286047000.3,N
1632968215.5,286047002.8,N
1632968235.3,286047000.3,N
1632968255.1,286047000.0,N
1632968275.9,286047000.5,N
1632968295.7,286047002.6,N
1632968315.5,286047002.2,N
1632968335.4,286047000.2,N
1632968355.2,286047000.2,N
1632968375.1,286046999.8,N
1632968376.0,286046999.8,N
1632968395.8,286047002.7,N
1632968415.6,286047002.5,N
1632968435.5,286047004.4,Y
1632968455.3,286047001.9,P
1632968475.2,286047001.7,P
1632968495.9,286047004.1,P
1632968515.7,286047004.1,Y
1632968535.6,286047002.3,P
1632968555.4,286046999.8,P
1632968575.2,286047000.6,N
1632968595.1,286047000.1,N
1632968596.0,286047000.1,N
1632968615.8,286047000.9,N
1632968635.7,286047002.4,N
1632968655.5,286047001.6,N
1632968675.3,286047001.8,N
1632968695.2,286047001.3,N
1632968715.0,286047000.7,N
1632968715.9,286047000.7,N
1632968735.8,286047001.2,N
1632968755.6,286047000.2,N
1632968775.4,286046998.1,N
1632968795.3,286046998.7,N
1632968815.1,286046998.8,N
1632968835.8,286046998.1,N
1632968855.7,286046998.3,N
1632968875.5,286046999.6,N
1632968895.4,286046999.3,N
1632968915.2,286047001.1,N
1632968935.0,286046999.9,N
1632968935.9,286046999.9,N
1632968955.8,286047002.7,N
1632968975.6,286047003.7,N
1632968995.4,286047004.2,N
1632969015.3,286047002.7,N
1632969035.1,286047000.8,N
1632969055.9,286047001.2,N
1632969075.7,286047000.5,N
1632969095.5,286047000.8,N
1632969115.4,286047000.8,N
1632969135.2,286047000.9,N
1632969155.1,286047000.5,N
1632969156.0,286047000.5,N
1632969175.8,286047000.8,N
1632969195.7,286046998.2,N
1632969215.5,286046998.4,N
1632969235.3,286046999.0,N
1632969255.2,286046998.9,N
1632969275.0,286046999.3,N
1632969275.9,286046999.3,N
1632969295.8,286046997.4,N
1632969315.6,286046997.4,N
1632969335.4,286046997.5,N
1632969355.3,286046996.6,N
1632969375.1,286046996.7,N
1632969395.8,286046998.7,N
1632969415.7,286046998.4,N
1632969435.5,286046999.3,N
1632969455.4,286046998.3,N
1632969475.2,286046999.3,N
1632969495.1,286046997.5,N
1632969496.0,286046997.5,N
1632969515.8,286046996.5,N
1632969535.6,286046996.8,N
1632969555.5,286046998.6,N
1632969575.3,286046996.6,N
1632969595.1,286046997.6,N
1632969615.9,286046998.4,N
1632969635.7,286046999.5,N
1632969655.6,286046997.0,N
1632969675.4,286046995.5,Y
1632969695.2,286046999.3,P
1632969715.1,286046999.6,N
1632969716.0,286046999.6,N
1632969735.8,286046998.6,N
1632969755.7,286047000.8,N
1632969775.5,286047000.2,N
1632969795.3,286047000.5,N
1632969815.2,286047001.0,N
1632969835.0,286046998.6,N
1632969835.9,286046998.6,N
1632969855.8,286046996.5,Y
1632969875.6,286047000.7,P
1632969895.4,286046999.7,N
1632969915.3,286047002.5,P
1632969935.1,286047002.3,N
1632969955.8,286047002.5,N
1632969975.7,286047001.5,N
1632969995.5,286047004.0,Y
1632970015.4,286047001.6,P
1632970035.2,286047003.5,P
1632970055.0,286047005.8,P
1632970055.9,286047005.8,Y
1632970075.8,286047002.1,P
1632970095.6,286047001.1,N
1632970115.5,286046998.6,N
1632970135.3,286047000.4,N
1632970155.1,286046998.8,N
1632970175.9,286046996.9,N
1632970195.7,286046997.0,N
1632970215.5,286046997.9,N
1632970235.4,286046993.3,Y
1632970255.2,286046996.1,P
1632970275.1,286046995.5,N
1632970276.0,286046995.5,N
1632970295.8,286046997.9,N
1632970315.6,286046995.9,N
1632970335.5,286046994.9,Y
1632970355.3,286046998.1,P
1632970375.1,286046999.9,N
1632970395.9,286046999.9,N
1632970415.7,286047002.8,N
1632970435.6,286046999.9,N
1632970455.4,286047002.6,N
1632970475.2,286046999.7,N
1632970495.1,286047002.1,N
1632970496.0,286047002.1,N
1632970515.8,286047003.7,N
1632970535.6,286047001.5,N
1632970555.5,286047002.8,N
1632970575.3,286047002.7,N
1632970595.2,286047003.9,N
1632970615.9,286047002.1,N
1632970635.7,286046999.8,N
1632970655.6,286046999.8,N
1632970675.4,286047001.1,N
1632970695.3,286047000.8,N
1632970715.1,286046998.6,N
1632970716.0,286046998.6,N
1632970735.8,286046998.7,N
1632970755.7,286046998.1,N
1632970775.5,286047000.3,N
1632970795.3,286047000.6,N
